FW6128 Weather Reports


time (UTC)temp
C
wind
direction
speed
KPH
gust
KPH
rain 1hr
cm
rain 24hr
cm
rain mn
cm
humidity
%
barometer
mb
20260508004603 11 225 14.5 25.7 0.00 0.00 0.94 75 1006.8
20260508004052 11 203 16.1 27.4 0.00 0.00 0.94 75 1006.8
20260508003549 11 225 14.5 35.4 0.00 0.00 0.94 75 1006.7
20260508003032 11 225 19.3 37.0 0.00 0.00 0.94 75 1006.7
20260508002522 11 225 22.5 37.0 0.00 0.00 0.94 75 1006.6
20260508002011 11 225 17.7 32.2 0.00 0.00 0.94 74 1006.6
20260508001502 11 203 14.5 35.4 0.00 0.00 0.94 74 1006.7
20260508000951 11 203 17.7 38.6 0.00 0.00 0.94 74 1006.7
20260508000442 12 203 14.5 38.6 0.00 0.00 0.94 74 1006.7
20260507235932 12 225 24.1 38.6 0.00 0.00 0.94 73 1006.6
20260507234910 12 203 20.9 43.5 0.00 0.00 0.94 74 1006.5
20260507234400 12 225 27.4 43.5 0.00 0.00 0.94 74 1006.4
20260507233850 12 203 24.1 54.7 0.00 0.00 0.94 72 1006.4
20260507233342 12 203 27.4 54.7 0.00 0.00 0.94 72 1006.5
20260507232830 12 203 32.2 54.7 0.00 0.00 0.94 72 1006.6
20260507232320 12 203 40.2 62.8 0.00 0.00 0.94 72 1006.5
20260507231300 12 225 35.4 43.5 0.00 0.00 0.94 72 1006.4
20260507230751 12 225 17.7 40.2 0.00 0.00 0.94 72 1006.4
20260507230239 12 203 20.9 38.6 0.00 0.00 0.94 72 1006.4
20260507225729 12 203 20.9 38.6 0.00 0.00 0.94 72 1006.3
20260507225219 12 203 24.1 38.6 0.00 0.00 0.94 72 1006.2
20260507224709 13 225 24.1 43.5 0.00 0.00 0.94 71 1006.0
20260507224159 13 203 17.7 43.5 0.00 0.00 0.94 71 1005.8
20260507223648 13 203 17.7 40.2 0.00 0.00 0.94 71 1005.6
20260507222628 13 203 17.7 40.2 0.00 0.00 0.94 70 1005.4
20260507222119 13 225 32.2 40.2 0.00 0.00 0.94 69 1005.1
20260507221058 13 203 12.9 35.4 0.00 0.00 0.94 70 1004.8
20260507220547 13 225 20.9 43.5 0.00 0.00 0.94 69 1004.7
20260507220038 13 225 22.5 43.5 0.00 0.00 0.94 69 1004.8
20260507215528 13 225 25.7 35.4 0.00 0.00 0.94 69 1004.6
20260507215018 13 225 17.7 32.2 0.00 0.00 0.94 69 1004.5
20260507214511 13 203 17.7 37.0 0.00 0.00 0.94 69 1004.3
20260507213957 13 225 17.7 37.0 0.00 0.00 0.94 69 1004.2
20260507213447 13 225 27.4 40.2 0.00 0.00 0.94 67 1003.8
20260507212936 13 225 22.5 40.2 0.00 0.00 0.94 67 1003.8
20260507212427 13 203 22.5 35.4 0.00 0.00 0.94 68 1003.7
20260507211916 13 203 27.4 38.6 0.00 0.00 0.94 68 1004.2
20260507211406 13 225 20.9 43.5 0.00 0.00 0.94 68 1004.4
20260507210856 13 225 24.1 43.5 0.00 0.00 0.94 68 1004.4
20260507210346 13 203 17.7 43.5 0.00 0.00 0.94 69 1004.3
20260507205835 13 293 33.8 43.5 0.00 0.00 0.94 67 1004.4
20260507205328 13 225 17.7 43.5 0.00 0.00 0.94 68 1004.5
20260507204816 13 203 24.1 43.5 0.00 0.00 0.94 69 1004.5
20260507204305 13 180 32.2 43.5 0.00 0.00 0.94 67 1004.4
20260507203756 13 158 19.3 37.0 0.00 0.00 0.94 69 1004.5
20260507203245 13 203 17.7 43.5 0.00 0.00 0.94 70 1004.6
20260507202743 13 225 20.9 48.3 0.00 0.00 0.94 69 1004.6
20260507201714 13 248 27.4 46.7 0.00 0.00 0.94 70 1004.6
20260507201204 13 248 27.4 43.5 0.00 0.00 0.94 71 1004.5
20260507195124 13 225 35.4 51.5 0.00 0.00 0.94 71 1003.7
20260507194615 13 225 38.6 51.5 0.00 0.00 0.94 70 1003.6
20260507194103 14 203 32.2 51.5 0.00 0.00 0.94 70 1003.6
20260507193554 14 225 33.8 54.7 0.00 0.00 0.94 70 1003.5
20260507193044 14 225 33.8 64.4 0.00 0.00 0.94 70 1003.3
20260507192534 14 225 49.9 64.4 0.00 0.00 0.94 69 1003.1
20260507192024 14 203 54.7 64.4 0.00 0.00 0.94 69 1002.7
20260507185432 14 203 37.0 51.5 0.00 0.00 0.94 69 1003.0
20260507184921 14 225 37.0 48.3 0.00 0.00 0.94 69 1002.8
20260507183902 14 225 43.5 49.9 0.00 0.00 0.94 68 1003.2
20260507183351 14 225 33.8 49.9 0.00 0.00 0.94 67 1003.5
20260507182842 14 203 40.2 54.7 0.00 0.00 0.94 67 1003.4
20260507182331 14 225 41.8 57.9 0.00 0.00 0.94 67 1003.7
20260507181817 15 135 40.2 57.9 0.00 0.00 0.94 66 1004.1
20260507181309 15 203 35.4 48.3 0.00 0.00 0.94 67 1004.2
20260507180802 15 203 33.8 51.5 0.00 0.00 0.94 66 1004.4
20260507180251 15 203 32.2 51.5 0.00 0.00 0.94 65 1004.4
20260507175740 15 203 37.0 51.5 0.00 0.00 0.94 65 1004.3
20260507174720 15 248 32.2 54.7 0.00 0.00 0.94 65 1004.5
20260507174210 15 248 38.6 49.9 0.00 0.00 0.94 65 1004.5
20260507173705 15 225 37.0 51.5 0.00 0.00 0.94 65 1004.6
20260507173150 15 248 37.0 54.7 0.00 0.00 0.94 64 1004.5
20260507172639 15 248 37.0 54.7 0.00 0.00 0.94 65 1004.4
20260507172130 15 248 35.4 48.3 0.00 0.00 0.94 65 1004.6
20260507171620 15 203 30.6 43.5 0.00 0.00 0.94 66 1004.5
20260507171113 15 225 32.2 51.5 0.00 0.00 0.94 66 1004.5
20260507170559 15 293 25.7 51.5 0.00 0.00 0.94 66 1004.5
20260507170049 15 225 30.6 69.2 0.00 0.00 0.94 67 1004.5
20260507165538 14 225 37.0 69.2 0.00 0.00 0.94 66 1004.7
20260507165029 15 225 37.0 54.7 0.00 0.00 0.94 67 1004.6
20260507164518 15 203 33.8 54.7 0.00 0.00 0.94 66 1004.4
20260507164008 15 225 27.4 46.7 0.00 0.00 0.94 66 1004.5
20260507163459 14 225 40.2 46.7 0.00 0.00 0.94 66 1004.4
20260507162948 14 248 32.2 46.7 0.00 0.00 0.94 66 1004.5
20260507162437 15 248 32.2 46.7 0.00 0.00 0.94 67 1004.6
20260507161418 14 248 37.0 43.5 0.00 0.00 0.94 66 1004.8
20260507160908 14 248 24.1 43.5 0.00 0.00 0.94 67 1004.8
20260507155847 14 225 30.6 40.2 0.00 0.00 0.94 67 1004.7
20260507155336 14 248 24.1 43.5 0.00 0.00 0.94 67 1005.1
20260507154826 13 248 25.7 43.5 0.00 0.00 0.94 68 1005.3
20260507154317 13 248 22.5 43.5 0.00 0.00 0.94 69 1005.2
20260507153806 13 293 32.2 43.5 0.00 0.00 0.94 69 1005.2
20260507153257 13 225 25.7 35.4 0.00 0.00 0.94 70 1005.3
20260507152747 13 225 27.4 40.2 0.00 0.00 0.94 70 1005.2
20260507152236 13 225 33.8 40.2 0.00 0.00 0.94 69 1005.1
20260507151726 13 225 27.4 43.5 0.00 0.00 0.94 69 1004.9
20260507151217 13 225 24.1 43.5 0.00 0.00 0.94 71 1004.8
20260507150156 13 203 27.4 38.6 0.00 0.00 0.94 70 1004.8
20260507145645 13 248 25.7 37.0 0.00 0.00 0.94 70 1005.1
20260507145136 13 225 27.4 37.0 0.00 0.00 0.94 71 1005.0
20260507144115 13 225 24.1 38.6 0.00 0.00 0.94 72 1004.7
20260507143605 13 203 32.2 38.6 0.00 0.00 0.94 70 1004.9
20260507143055 13 225 20.9 33.8 0.00 0.00 0.94 72 1005.0
20260507142545 13 225 19.3 32.2 0.00 0.00 0.94 73 1004.9
20260507142034 13 203 12.9 29.0 0.00 0.00 0.94 73 1004.9
20260507141524 13 225 17.7 29.0 0.00 0.00 0.94 73 1005.0
20260507141015 13 225 20.9 27.4 0.00 0.00 0.94 72 1005.2
20260507140504 13 248 16.1 27.4 0.00 0.00 0.94 73 1005.1
20260507140000 13 225 6.4 25.7 0.00 0.00 0.94 73 1005.2
20260507135448 13 225 12.9 27.4 0.00 0.00 0.94 73 1005.0
20260507134933 13 248 12.9 27.4 0.00 0.00 0.94 73 1005.1
20260507134423 13 225 24.1 32.2 0.00 0.00 0.94 72 1004.9
20260507133404 13 248 20.9 33.8 0.00 0.00 0.94 73 1004.8
20260507132855 13 225 22.5 33.8 0.00 0.00 0.94 73 1004.6
20260507131832 13 293 16.1 35.4 0.00 0.00 0.94 73 1005.0
20260507131322 13 225 22.5 35.4 0.00 0.00 0.94 72 1004.7
20260507130812 13 225 27.4 33.8 0.00 0.00 0.94 74 1004.3
20260507125752 13 203 24.1 33.8 0.00 0.00 0.94 73 1004.2
20260507125241 13 225 17.7 46.7 0.00 0.00 0.94 75 1004.0
20260507124731 13 225 30.6 46.7 0.00 0.00 0.94 74 1003.8
20260507124222 13 225 33.8 38.6 0.00 0.00 0.94 75 1003.7
20260507123201 13 225 16.1 37.0 0.00 0.00 0.94 77 1003.3
20260507122651 13 225 17.7 40.2 0.00 0.00 0.94 77 1003.3
20260507122141 13 203 27.4 40.2 0.00 0.00 0.94 78 1003.1
20260507121631 13 225 32.2 40.2 0.00 0.00 0.94 78 1003.4
20260507121121 13 225 30.6 38.6 0.00 0.00 0.94 77 1002.8
20260507115552 13 338 25.7 40.2 0.00 0.00 0.94 77 1002.5
20260507115040 13 158 20.9 37.0 0.00 0.00 0.94 77 1002.4
20260507114530 13 203 16.1 46.7 0.00 0.00 0.94 77 1002.1
20260507113510 13 203 33.8 54.7 0.00 0.00 0.94 76 1002.0
20260507112959 13 180 37.0 54.7 0.00 0.00 0.94 77 1002.1
20260507112449 13 180 32.2 54.7 0.00 0.00 0.94 77 1001.9
20260507111430 13 203 35.4 49.9 0.00 0.00 0.94 78 1001.3
20260507110919 13 225 37.0 48.3 0.00 0.00 0.94 79 1001.7
20260507110408 13 225 25.7 43.5 0.00 0.00 0.94 79 1002.0
20260507105858 13 203 29.0 43.5 0.00 0.00 0.94 79 1002.2
20260507105348 13 203 19.3 43.5 0.00 0.00 0.94 78 1002.3
20260507104838 13 203 19.3 51.5 0.00 0.00 0.94 78 1002.5
20260507104328 14 270 20.9 51.5 0.00 0.00 0.94 75 1002.7
20260507103818 14 225 17.7 43.5 0.00 0.00 0.94 77 1002.4
20260507103307 14 203 22.5 43.5 0.00 0.00 0.94 77 1002.6
20260507102758 14 180 27.4 43.5 0.00 0.00 0.94 78 1002.6
20260507102247 14 225 27.4 43.5 0.00 0.00 0.94 78 1002.9
20260507101737 14 225 22.5 43.5 0.00 0.00 0.94 81 1002.7
20260507101228 15 180 25.7 40.2 0.00 0.00 0.94 82 1002.8
20260507100717 15 203 16.1 40.2 0.00 0.00 0.94 81 1003.3
20260507095147 15 203 17.7 38.6 0.00 0.00 0.94 85 1003.3
20260507094640 15 180 19.3 43.5 0.00 0.00 0.94 85 1003.2
20260507094126 15 203 27.4 43.5 0.00 0.00 0.94 88 1003.3
20260507093106 16 225 16.1 27.4 0.00 0.00 0.94 93 1003.3
20260507092556 16 203 19.3 29.0 0.00 0.00 0.94 93 1003.3
20260507092046 16 225 11.3 29.0 0.00 0.00 0.94 93 1003.2
20260507091536 16 203 16.1 32.2 0.00 0.00 0.94 93 1003.2
20260507091026 16 203 19.3 32.2 0.00 0.00 0.94 94 1004.2
20260507090515 16 225 16.1 33.8 0.00 0.00 0.94 94 1004.2
20260507090006 16 225 19.3 40.2 0.00 0.00 0.94 94 1003.7
20260507084435 16 225 25.7 35.4 0.00 0.00 0.94 94 1002.4
20260507083414 16 225 22.5 35.4 0.00 0.00 0.94 94 1002.4
20260507082904 16 203 17.7 38.6 0.00 0.00 0.94 93 1002.2
20260507082354 16 225 20.9 43.5 0.00 0.00 0.94 93 1002.1
20260507081854 16 203 27.4 43.5 0.00 0.00 0.94 93 1002.4
20260507080823 16 180 27.4 40.2 0.00 0.00 0.94 93 1002.0
20260507080314 16 225 24.1 38.6 0.00 0.00 0.94 93 1002.3
20260507075803 16 135 25.7 38.6 0.00 0.00 0.94 93 1002.3
20260507075254 16 225 19.3 37.0 0.00 0.00 0.94 93 1001.9
20260507074743 17 203 20.9 37.0 0.00 0.00 0.94 93 1001.9
20260507073723 17 225 11.3 22.5 0.00 0.00 0.94 93 1002.5
20260507073212 17 225 6.4 22.5 0.00 0.00 0.94 93 1002.4
20260507072152 17 203 3.2 17.7 0.00 0.00 0.94 93 1003.0
20260507071641 17 225 9.7 17.7 0.00 0.00 0.94 93 1002.9
20260507071132 17 203 8.0 14.5 0.00 0.00 0.94 93 1002.8
20260507070622 17 225 6.4 12.9 0.00 0.00 0.94 94 1002.7
20260507070112 17 203 6.4 12.9 0.00 0.00 0.94 94 1003.1
20260507065601 17 180 8.0 12.9 0.00 0.00 0.94 94 1003.2
20260507064541 17 203 6.4 11.3 0.00 0.00 0.94 94 1002.7
20260507064031 17 203 8.0 11.3 0.00 0.00 0.94 94 1002.7
20260507063521 17 203 6.4 12.9 0.00 0.00 0.94 94 1002.1
20260507063011 17 203 6.4 20.9 0.00 0.00 0.94 94 1001.8
20260507062501 17 203 6.4 20.9 0.00 0.00 0.94 94 1001.3
20260507061951 17 203 6.4 17.7 0.00 0.00 0.94 94 1001.0
20260507061443 17 180 6.4 14.5 0.00 0.00 0.94 94 1001.1
20260507060930 17 135 8.0 12.9 0.00 0.00 0.94 94 1001.7
20260507060422 17 158 6.4 0.0 0.00 0.00 0.94 94 1002.3
20260507060208 17 158 6.4 0.0 0.00 0.00 0.94 94 1002.3
20260507055608 17 203 6.4 11.3 0.05 0.97 0.94 94 1001.9
20260507054546 17 158 6.4 12.9 0.05 0.97 0.94 93 1002.0
20260507054038 17 158 3.2 11.3 0.10 0.97 0.94 93 1001.8
20260507053528 18 158 3.2 9.7 0.10 0.97 0.94 93 1002.1
20260507053016 18 90 1.6 9.7 0.10 0.97 0.94 93 1001.7
20260507052506 18 90 3.2 11.3 0.15 0.97 0.94 93 1001.4
20260507051956 18 248 3.2 17.7 0.15 0.97 0.94 93 1000.9
20260507051446 18 225 3.2 27.4 0.15 0.97 0.94 93 1000.0
20260507050936 18 248 4.8 29.0 0.15 0.97 0.94 93 998.8
20260507050425 18 203 16.1 29.0 0.15 0.97 0.94 92 998.8
20260507045916 18 203 12.9 33.8 0.10 0.89 0.89 93 998.7
20260507045405 18 293 6.4 35.4 0.10 0.89 0.86 93 999.3
20260507044344 18 203 19.3 40.2 0.10 0.89 0.86 92 998.2
20260507043324 18 180 27.4 57.9 0.15 0.86 0.84 92 1000.3
20260507042814 18 158 33.8 64.4 0.56 0.84 0.81 91 1000.1
20260507042306 18 225 48.3 88.5 0.76 0.81 0.79 89 999.7
20260507041758 19 248 56.3 88.5 0.79 0.81 0.79 86 998.5
20260507041247 18 270 48.3 72.4 0.79 0.81 0.79 96 998.4
20260507040733 18 315 30.6 43.5 0.79 0.81 0.79 96 998.6
20260507040224 18 248 6.4 17.7 0.79 0.81 0.79 95 999.2
20260507035713 18 293 6.4 20.9 0.79 0.81 0.79 94 998.9
20260507035204 17 270 3.2 20.9 0.79 0.81 0.79 94 998.8
20260507034144 18 180 4.8 37.0 0.79 0.81 0.79 95 997.6
20260507033123 20 293 20.9 38.6 0.64 0.66 0.64 95 999.1
20260507032613 20 270 25.7 37.0 0.05 0.10 0.13 95 1001.2
20260507032103 21 203 16.1 32.2 0.00 0.03 0.00 94 999.2
20260507031553 21 203 8.0 27.4 0.00 0.03 0.00 94 998.8
20260507031042 21 180 14.5 27.4 0.00 0.03 0.00 92 998.7
20260507030536 22 203 8.0 25.7 0.00 0.03 0.00 92 998.0
20260507030022 22 225 6.4 17.7 0.00 0.03 0.00 90 998.8
20260507025512 22 315 9.7 17.7 0.00 0.03 0.03 88 998.5
20260507025001 23 180 6.4 22.5 0.00 0.03 0.03 87 998.7
20260507024457 23 135 3.2 22.5 0.00 0.03 0.03 87 998.8
20260507023942 23 203 6.4 22.5 0.00 0.03 0.03 87 999.0
20260507023431 23 225 6.4 22.5 0.00 0.03 0.03 87 999.5
20260507022411 23 225 3.2 17.7 0.00 0.03 0.03 88 999.8
20260507021900 22 293 4.8 12.9 0.00 0.03 0.03 91 999.7
20260507021351 22 293 3.2 9.7 0.00 0.03 0.03 92 999.9
20260507020855 22 270 3.2 6.4 0.00 0.03 0.03 91 1000.0
20260507020330 22 315 3.2 9.7 0.00 0.03 0.03 91 999.6
20260507015820 22 293 6.4 9.7 0.00 0.03 0.03 90 999.7
20260507015310 22 293 6.4 9.7 0.00 0.03 0.03 90 999.6
20260507014801 22 270 4.8 12.9 0.00 0.03 0.03 90 999.7
20260507014250 22 293 6.4 12.9 0.00 0.03 0.03 90 999.8
20260507013739 22 315 6.4 11.3 0.00 0.03 0.03 90 999.8
20260507013229 22 315 4.8 11.3 0.00 0.03 0.03 90 999.8
20260507012720 23 293 6.4 9.7 0.00 0.03 0.03 89 999.6
20260507012209 23 338 6.4 9.7 0.00 0.03 0.03 89 999.4
20260507011658 23 293 6.4 9.7 0.00 0.03 0.03 88 999.4
20260507011148 23 315 4.8 11.3 0.00 0.03 0.03 88 999.3
20260507010640 23 293 6.4 12.9 0.00 0.03 0.03 87 999.3
20260507005108 24 315 4.8 17.7 0.00 0.03 0.03 85 999.2